Regional Weather Roundup
Issued by NWS

Home | Current Version | Previous Version | Text Only | Print | Product List | Glossary Off
Versions: 1 2 3 4 5 6 7 8 9 10 11 12 13 14 15 16 17 18 19 20 21 22 23 24 25 26 27 28 29 30 31 32 33 34 35 36 37 38 39 40 41 42 43 44 45 46 47 48 49 50

000
ASUS43 KOAX 181502
RWRNE

WEATHER ROUNDUP FOR NEBRASKA
NATIONAL WEATHER SERVICE OMAHA NE
900 AM CST SAT NOV 18 2017

NOTES: SATELLITE DATA IS BEING USED TO AUGMENT CLOUD COVER ABOVE
       12000 FEET.
       "FAIR" INDICATES FEW OR NO CLOUDS BELOW 12,000 FEET WITH NO
       SIGNIFICANT WEATHER AND/OR OBSTRUCTIONS TO VISIBILITY.


NEZ001>004-019>022-054>056-181600-
NEBRASKA PANHANDLE

CITY           SKY/WX    TMP DP  RH WIND       PRES   REMARKS
SCOTTSBLUFF    SUNNY     29  20  69 NW14      30.21R WCI  18
ALLIANCE       SUNNY     29  20  69 NW15      30.17R WCI  18
CHADRON        SUNNY     29  21  72 W5        30.19R WCI  24
GORDON         FAIR      30  24  77 W13       30.13R WCI  20
KIMBALL        SUNNY     29  18  64 NW18G26   30.20R WCI  16
SIDNEY         SUNNY     30  21  69 NW15      30.20R WCI  19
$$

NEZ057>060-069>072-079>082-181600-
SOUTHWEST NEBRASKA

CITY           SKY/WX    TMP DP  RH WIND       PRES   REMARKS
NORTH PLATTE   SUNNY     37  30  75 NW15      30.13R WCI  28
IMPERIAL       SUNNY     35  24  64 NW21G29   30.17R WCI  24
LEXINGTON      SUNNY     39  32  75 NW21G26   30.09R WCI  29
MCCOOK         SUNNY     39  32  76 NW21G31   30.13R WCI  29
OGALLALA       SUNNY     35  26  68 NW17G23   30.17R WCI  25
$$

NEZ005>010-023>029-035>040-094-181600-
NORTH CENTRAL NEBRASKA

CITY           SKY/WX    TMP DP  RH WIND       PRES   REMARKS
VALENTINE      SUNNY     36  27  69 NW13      30.09R WCI  27
AINSWORTH      SUNNY     35  30  82 NW15G24   30.08R WCI  25
BROKEN BOW     SUNNY     38  30  73 NW25G33   30.06R WCI  27
O`NEILL        SUNNY     37  32  81 NW21G32   30.02R WCI  27
ORD            SUNNY     39  33  79 NW21      30.02R WCI  29
THEDFORD       SUNNY     36  30  78 NW14      30.11R WCI  27
$$

NEZ041-046>049-061>064-073>077-083>087-181600-
SOUTH CENTRAL NEBRASKA

CITY           SKY/WX    TMP DP  RH WIND       PRES   REMARKS
GRAND ISLAND   CLOUDY    40  37  89 NW20G28   30.00R WCI  30
AURORA         CLOUDY    40  37  87 NW20      29.97R WCI  31
HASTINGS       CLOUDY    39  35  86 NW18      30.00R WCI  30
HEBRON         CLOUDY    42  36  79 NW14G21   29.97R
HOLDREGE       SUNNY     39  36  87 NW21G29   30.05R WCI  29
KEARNEY        SUNNY     40  34  79 NW25G32   30.03R WCI  29
YORK           PTSUNNY   39  39 100 NW15      29.96R WCI  31
$$

NEZ011>018-030>034-042>045-181600-
NORTHEAST NEBRASKA

CITY           SKY/WX    TMP DP  RH WIND       PRES   REMARKS
NORFOLK        MOSUNNY   38  33  82 NW18G26   29.93R WCI  28
ALBION         MOSUNNY   39  36  87 NW21      29.97R WCI  29
BLAIR          CLOUDY    37  29  74 NW18G25   29.88R WCI  27
COLUMBUS       MOSUNNY   40  35  83 NW17      29.94R WCI  31
FREMONT        PTSUNNY   37  31  76 NW17      29.91R WCI  28
TEKAMAH        PTSUNNY   36  28  73 NW15      29.91R WCI  27
WAYNE          MOSUNNY   37  31  81 NW16G23   29.93R WCI  27
$$

NEZ050>053-065>068-078-088>093-181600-
SOUTHEAST NEBRASKA

CITY           SKY/WX    TMP DP  RH WIND       PRES   REMARKS
LINCOLN        PTSUNNY   41  32  70 N18G30    29.93R
OMAHA EPPLEY   CLOUDY    38  29  70 NW21G29   29.89R WCI  28
BEATRICE       CLOUDY    40  33  76 N22       29.92R WCI  30
FALLS CITY     CLOUDY    40  36  86 NW17G30   29.84R WCI  31
NEBRASKA CITY  CLOUDY    38  36  91 N21       29.86R WCI  28
PLATTSMOUTH    CLOUDY    38  32  78 NW20G29   29.86R WCI  28
$$

NEZ044-045-051>053-067-181600-
OMAHA AREA

CITY           SKY/WX    TMP DP  RH WIND       PRES   REMARKS
OMAHA EPPLEY   CLOUDY    38  29  70 NW21G29   29.89R WCI  28
BLAIR          CLOUDY    37  29  74 NW18G25   29.88R WCI  27
FREMONT        PTSUNNY   37  31  76 NW17      29.91R WCI  28
MILLARD        CLOUDY    40  30  68 NW16G28   29.90R WCI  31
OFFUTT AFB     CLOUDY    39  29  69 N20G25    29.87R WCI  29
PLATTSMOUTH    CLOUDY    38  32  78 NW20G29   29.86R WCI  28
WAHOO          FAIR      38  32  78 NW16      29.91R WCI  29
$$



USA.gov is the U.S. government's official web portal to all federal, state and local government web resources and services.